• In Belgium
  • List of Countries
  • For 7 days
  • Water Temperature
  • Satellite Maps
  • Weather Map
  • Weather Widgets
  • user-avatar
    Login

    Hourly Weather Ramultowice

    Today, 26 September, Wednesday

    Time Temperature Precipitation Wind Pressure Humidity
    00:00 +6°C° 0 mm 2 mps 766 mmHg 72%
    01:00 +5°C° 0 mm 2 mps 766 mmHg 71%
    02:00 +5°C° 0 mm 2 mps 766 mmHg 71%
    03:00 +5°C° 0 mm 2 mps 766 mmHg 72%
    04:00 +5°C° 0 mm 2 mps 766 mmHg 72%
    05:00 +5°C° 0 mm 2 mps 765 mmHg 70%
    06:00 +6°C° 0 mm 2 mps 765 mmHg 69%
    07:00 +5°C° 0 mm 3 mps 765 mmHg 65%
    08:00 +7°C° 0 mm 4 mps 765 mmHg 59%
    09:00 +10°C° 0 mm 4 mps 765 mmHg 53%
    10:00 +12°C° 0 mm 4 mps 764 mmHg 46%
    11:00 +13°C° 0 mm 4 mps 764 mmHg 44%
    12:00 +14°C° 0 mm 5 mps 763 mmHg 41%
    13:00 +15°C° 0 mm 5 mps 763 mmHg 38%
    14:00 +15°C° 0 mm 4 mps 762 mmHg 40%
    15:00 +15°C° 0 mm 4 mps 761 mmHg 43%
    16:00 +15°C° 0 mm 4 mps 760 mmHg 45%
    17:00 +14°C° 0 mm 4 mps 760 mmHg 47%
    18:00 +13°C° 0 mm 4 mps 760 mmHg 49%
    19:00 +11°C° 0 mm 4 mps 760 mmHg 51%
    20:00 +12°C° 0 mm 4 mps 760 mmHg 50%
    21:00 +12°C° 0 mm 5 mps 760 mmHg 50%
    22:00 +12°C° 0 mm 5 mps 760 mmHg 49%
    23:00 +12°C° 0.1 mm 5 mps 760 mmHg 52%

    Tomorrow, 27 September, Thursday

    Time Temperature Precipitation Wind Pressure Humidity
    00:00 +12°C° 0.1 mm 4 mps 760 mmHg 54%
    01:00 +12°C° 0.1 mm 4 mps 760 mmHg 56%
    02:00 +12°C° 0 mm 4 mps 759 mmHg 57%
    03:00 +12°C° 0 mm 4 mps 759 mmHg 59%
    04:00 +12°C° 0 mm 4 mps 759 mmHg 60%
    05:00 +12°C° 0 mm 4 mps 759 mmHg 61%
    06:00 +12°C° 0 mm 4 mps 759 mmHg 63%
    07:00 +12°C° 0 mm 4 mps 759 mmHg 64%
    08:00 +14°C° 0 mm 4 mps 759 mmHg 63%
    09:00 +15°C° 0 mm 4 mps 759 mmHg 62%
    10:00 +18°C° 0 mm 4 mps 759 mmHg 61%
    11:00 +19°C° 0 mm 4 mps 759 mmHg 60%
    12:00 +20°C° 0 mm 4 mps 759 mmHg 60%
    13:00 +21°C° 0 mm 4 mps 758 mmHg 59%
    14:00 +21°C° 0 mm 3 mps 758 mmHg 59%
    15:00 +22°C° 0 mm 3 mps 757 mmHg 60%
    16:00 +22°C° 0 mm 3 mps 757 mmHg 61%
    17:00 +20°C° 0 mm 3 mps 756 mmHg 66%
    18:00 +18°C° 0 mm 3 mps 756 mmHg 71%
    19:00 +17°C° 0 mm 2 mps 756 mmHg 77%
    20:00 +17°C° 0 mm 3 mps 755 mmHg 76%
    21:00 +16°C° 0 mm 3 mps 755 mmHg 75%
    22:00 +16°C° 0 mm 3 mps 755 mmHg 74%
    23:00 +16°C° 0 mm 3 mps 754 mmHg 73%

    Day after tomorrow, 28 September, Friday

    Time Temperature Precipitation Wind Pressure Humidity
    00:00 +16°C° 0 mm 3 mps 754 mmHg 72%
    01:00 +16°C° 0 mm 3 mps 753 mmHg 71%
    02:00 +14°C° 0 mm 3 mps 753 mmHg 70%
    03:00 +14°C° 0 mm 3 mps 752 mmHg 69%
    04:00 +14°C° 0 mm 4 mps 752 mmHg 68%
    05:00 +13°C° 0 mm 3 mps 752 mmHg 68%
    06:00 +13°C° 0 mm 3 mps 752 mmHg 68%
    07:00 +13°C° 0 mm 3 mps 752 mmHg 68%
    08:00 +14°C° 0 mm 4 mps 752 mmHg 64%
    09:00 +15°C° 0 mm 4 mps 752 mmHg 61%
    10:00 +18°C° 0 mm 4 mps 752 mmHg 58%
    11:00 +17°C° 0 mm 4 mps 752 mmHg 61%
    12:00 +17°C° 0 mm 4 mps 752 mmHg 64%
    13:00 +16°C° 0 mm 5 mps 752 mmHg 67%
    14:00 +17°C° 0 mm 4 mps 752 mmHg 67%
    15:00 +15°C° 0 mm 4 mps 752 mmHg 66%
    16:00 +15°C° 0 mm 4 mps 752 mmHg 65%
    17:00 +13°C° 0 mm 4 mps 753 mmHg 66%
    18:00 +12°C° 0 mm 3 mps 753 mmHg 68%
    19:00 +12°C° 0 mm 2 mps 753 mmHg 69%
    20:00 +12°C° 0 mm 2 mps 754 mmHg 69%
    21:00 +10°C° 0 mm 2 mps 754 mmHg 69%
    22:00 +10°C° 0 mm 2 mps 755 mmHg 69%
    23:00 +10°C° 0 mm 2 mps 755 mmHg 71%

    29 September, Saturday

    Time Temperature Precipitation Wind Pressure Humidity
    00:00 +9°C° 0 mm 2 mps 755 mmHg 73%
    01:00 +9°C° 0 mm 2 mps 755 mmHg 76%
    02:00 +8°C° 0 mm 2 mps 756 mmHg 80%
    03:00 +8°C° 0 mm 2 mps 756 mmHg 84%
    04:00 +7°C° 0 mm 3 mps 756 mmHg 88%
    05:00 +7°C° 0 mm 3 mps 757 mmHg 87%
    06:00 +7°C° 0 mm 3 mps 757 mmHg 86%
    07:00 +7°C° 0 mm 3 mps 757 mmHg 85%
    08:00 +9°C° 0 mm 3 mps 758 mmHg 77%
    09:00 +10°C° 0 mm 3 mps 758 mmHg 68%
    10:00 +12°C° 0 mm 3 mps 758 mmHg 60%
    11:00 +12°C° 0.1 mm 3 mps 758 mmHg 55%
    12:00 +13°C° 0.1 mm 3 mps 758 mmHg 50%
    13:00 +14°C° 0.1 mm 3 mps 758 mmHg 45%
    14:00 +13°C° 0 mm 3 mps 758 mmHg 45%
    15:00 +14°C° 0 mm 2 mps 758 mmHg 45%
    16:00 +14°C° 0 mm 2 mps 758 mmHg 46%
    17:00 +13°C° 0 mm 2 mps 759 mmHg 49%
    18:00 +12°C° 0 mm 1 mps 759 mmHg 53%
    19:00 +11°C° 0 mm 1 mps 759 mmHg 56%
    20:00 +10°C° 0 mm 1 mps 759 mmHg 57%
    21:00 +10°C° 0 mm 1 mps 759 mmHg 59%
    22:00 +9°C° 0 mm 1 mps 760 mmHg 60%
    23:00 +9°C° 0 mm 1 mps 759 mmHg 61%

    30 September, Sunday

    Time Temperature Precipitation Wind Pressure Humidity
    00:00 +8°C° 0 mm 1 mps 759 mmHg 63%
    01:00 +8°C° 0 mm 1 mps 759 mmHg 64%
    02:00 +8°C° 0 mm 1 mps 759 mmHg 65%
    03:00 +7°C° 0 mm 1 mps 759 mmHg 65%
    04:00 +7°C° 0 mm 1 mps 758 mmHg 66%
    05:00 +7°C° 0 mm 1 mps 758 mmHg 65%
    06:00 +8°C° 0 mm 1 mps 758 mmHg 65%
    07:00 +7°C° 0 mm 2 mps 758 mmHg 64%
    08:00 +9°C° 0 mm 2 mps 758 mmHg 57%
    09:00 +12°C° 0 mm 2 mps 758 mmHg 50%
    10:00 +13°C° 0 mm 3 mps 757 mmHg 43%
    11:00 +13°C° 0 mm 3 mps 757 mmHg 41%
    12:00 +14°C° 0 mm 3 mps 756 mmHg 38%
    13:00 +16°C° 0 mm 3 mps 756 mmHg 36%
    14:00 +16°C° 0 mm 3 mps 755 mmHg 37%
    15:00 +16°C° 0 mm 3 mps 754 mmHg 39%
    16:00 +14°C° 0 mm 3 mps 754 mmHg 40%
    17:00 +13°C° 0 mm 3 mps 754 mmHg 44%
    18:00 +11°C° 0 mm 3 mps 753 mmHg 48%
    19:00 +9°C° 0 mm 2 mps 753 mmHg 52%
    20:00 +9°C° 0 mm 2 mps 753 mmHg 54%
    21:00 +8°C° 0 mm 2 mps 753 mmHg 55%
    22:00 +8°C° 0 mm 2 mps 752 mmHg 56%
    23:00 +8°C° 0 mm 2 mps 752 mmHg 57%

    1 October, Monday

    Time Temperature Precipitation Wind Pressure Humidity
    00:00 +7°C° 0 mm 2 mps 751 mmHg 58%
    01:00 +7°C° 0 mm 2 mps 751 mmHg 59%
    02:00 +7°C° 0 mm 2 mps 750 mmHg 60%
    03:00 +6°C° 0 mm 2 mps 750 mmHg 60%
    04:00 +6°C° 0 mm 2 mps 749 mmHg 61%
    05:00 +7°C° 0 mm 2 mps 749 mmHg 63%
    06:00 +7°C° 0 mm 2 mps 748 mmHg 65%
    07:00 +7°C° 0 mm 2 mps 748 mmHg 67%
    08:00 +9°C° 0 mm 2 mps 748 mmHg 62%
    09:00 +12°C° 0 mm 3 mps 748 mmHg 57%
    10:00 +14°C° 0 mm 3 mps 748 mmHg 52%
    11:00 +16°C° 0 mm 3 mps 747 mmHg 48%
    12:00 +16°C° 0 mm 3 mps 747 mmHg 45%
    13:00 +17°C° 0 mm 3 mps 747 mmHg 41%
    14:00 +17°C° 0 mm 3 mps 747 mmHg 42%
    15:00 +17°C° 0 mm 3 mps 747 mmHg 43%
    16:00 +16°C° 0 mm 3 mps 747 mmHg 44%
    17:00 +14°C° 0 mm 3 mps 747 mmHg 49%
    18:00 +12°C° 0 mm 3 mps 747 mmHg 54%
    19:00 +10°C° 0 mm 2 mps 748 mmHg 58%
    20:00 +10°C° 0 mm 2 mps 748 mmHg 60%
    21:00 +10°C° 0 mm 3 mps 748 mmHg 61%
    22:00 +9°C° 0 mm 3 mps 749 mmHg 63%
    23:00 +9°C° 0 mm 3 mps 749 mmHg 67%
    Show more